Weather History for Arcata, CA

Change the Weather History Date:

Tuesday, March 5, 2013

  Actual Average Record
Temperature  
Mean Temperature 46 °F -  
Max Temperature 52 °F 53 °F 66 °F (2014)
Min Temperature 39 °F 37 °F 30 °F (1999)
Degree Days  
Heating Degree Days 20    
Moisture  
Dew Point 38 °F    
Average Humidity 74    
Maximum Humidity 96    
Minimum Humidity 43    
Precipitation  
Precipitation 1.07 in - - ()
Sea Level Pressure  
Sea Level Pressure 29.81 in    
Wind  
Wind Speed 9 mph (SE)    
Max Wind Speed 22 mph    
Max Gust Speed 33 mph    
Visibility 9 miles    
Events Rain    
Averages and records for this station are not official NWS values.
T = Trace of Precipitation, MM = Missing Value Source: NWS Daily Summary

Daily Weather History Graph

Daily Weather History Graph

Search for Another Location

Airport:

Trip Planner

Search our weather history database for the weather conditions in past years. The results will help you decide how hot, cold, wet, or windy it might be!

Date:

Astronomy

Mar. 05, 2013 Rise Set
Actual Time 6:43 AM PST 6:12 PM PST
Civil Twilight 6:16 AM PST 6:39 PM PST
Nautical Twilight 5:44 AM PST 7:11 PM PST
Astronomical Twilight 5:12 AM PST 7:43 PM PST
Moon 2:03 AM PST (3/5) 11:55 AM PST (3/5)
Length of Visible Light 12h 23m
Length of Day
11h 28m
Last Quarter, 39% of the Moon is Illuminated
Mar 5
Last Quarter
Mar 11
New
Mar 19
First Quarter
Mar 27
Full
Apr 2
Last Quarter

Hourly Weather History & Observations

Time (PST) Temp. Windchill Dew Point Humidity Pressure Visibility Wind Dir Wind Speed Gust Speed Precip Events Conditions
12:53 AM 39.9 °F 37.8 °F 37.0 °F 89% 30.00 in 10.0 mi East 3.5 mph - N/A   Mostly Cloudy
1:53 AM 39.9 °F 37.8 °F 37.0 °F 89% 29.99 in 10.0 mi East 3.5 mph - N/A   Overcast
2:53 AM 44.1 °F 40.8 °F 30.9 °F 60% 29.96 in 10.0 mi SE 5.8 mph - N/A   Overcast
3:53 AM 48.0 °F - 28.0 °F 46% 29.92 in 10.0 mi SE 12.7 mph 19.6 mph N/A   Overcast
5:53 AM 50.0 °F - 28.0 °F 43% 29.90 in 10.0 mi SSE 10.4 mph - N/A   Overcast
6:53 AM 50.0 °F - 28.9 °F 44% 29.88 in 10.0 mi SSE 8.1 mph - N/A   Overcast
7:53 AM 50.0 °F - 34.0 °F 54% 29.88 in 10.0 mi SSE 6.9 mph - N/A   Overcast
8:53 AM 52.0 °F - 35.1 °F 53% 29.88 in 10.0 mi South 12.7 mph 23.0 mph N/A   Overcast
9:53 AM 50.0 °F - 36.0 °F 59% 29.88 in 10.0 mi South 21.9 mph 33.4 mph 0.00 in Rain Light Rain
10:53 AM 51.1 °F - 39.0 °F 63% 29.87 in 10.0 mi South 19.6 mph 24.2 mph 0.00 in Rain Light Rain
11:53 AM 52.0 °F - 39.0 °F 61% 29.84 in 10.0 mi SE 15.0 mph 20.7 mph 0.00 in   Overcast
12:53 PM 50.0 °F - 39.9 °F 68% 29.83 in 10.0 mi SSE 11.5 mph 20.7 mph 0.01 in Rain Light Rain
1:53 PM 48.9 °F - 43.0 °F 80% 29.82 in 7.0 mi SSE 8.1 mph 16.1 mph 0.05 in Rain Light Rain
2:53 PM 46.9 °F - 45.0 °F 93% 29.81 in 4.0 mi SE 8.1 mph - 0.13 in Rain Rain
3:53 PM 46.9 °F - 44.1 °F 90% 29.77 in 5.0 mi SE 5.8 mph - 0.13 in Rain Rain
4:53 PM 46.0 °F 42.5 °F 44.1 °F 93% 29.74 in 10.0 mi SSE 6.9 mph - 0.06 in Rain Light Rain
5:53 PM 46.0 °F 39.9 °F 42.1 °F 86% 29.69 in 10.0 mi SE 13.8 mph 21.9 mph 0.06 in   Overcast
6:53 PM 46.0 °F 42.5 °F 42.1 °F 86% 29.69 in 10.0 mi SE 6.9 mph - 0.00 in Rain Light Rain
7:53 PM 46.0 °F 41.0 °F 42.1 °F 86% 29.68 in 9.0 mi SSE 10.4 mph 19.6 mph 0.06 in Rain Rain
8:53 PM 45.0 °F 39.7 °F 42.1 °F 90% 29.68 in 9.0 mi SSE 10.4 mph 19.6 mph 0.11 in Rain Light Rain
9:53 PM 44.1 °F 36.5 °F 41.0 °F 89% 29.68 in 6.0 mi SSE 17.3 mph 23.0 mph 0.16 in Rain Rain
10:53 PM 43.0 °F 37.7 °F 41.0 °F 93% 29.66 in 4.0 mi SE 9.2 mph - 0.19 in Rain Heavy Rain
11:53 PM 42.1 °F 38.4 °F 41.0 °F 96% 29.63 in 7.0 mi SE 5.8 mph - 0.11 in Rain Rain